FENGYUN 1C DEB

Satellite information

Favourite Embed

Satellite Type and Status

DEBRISIN ORBIT

Key statistics

Satellite FENGYUN 1C DEB at a glance.

Uptime

9495

Days in orbit

Revolutions

≈ 14.2

Per day

Orbit

SSO

Sun Synchronous Orbit

Inclination

100.3

Latest

Satellite identification and parameters

Extended collection of information and parameters for FENGYUN 1C DEB.

Object identification

Identified? True

Debris? True

Object name: FENGYUN 1C DEB

International designator: 1999-025CTY

Object number (NORAD): 32178

Object ID (CCSDS): 32178

Country: PEOPLES REPUBLIC OF CHINA (PRC)

Current information (Y/N): Y

RCS size: SMALL

Orbital parameters

Period: 101.285 minutes

Inclination: 100.2898 deg

SMA: 7197.663 km

Apoapsis: 887.863 km

Periapsis: 751.194 km

RAAN: 91.5505 deg

Eccentricy: 0.009494

Argument of periapsis: 206.7981 deg

Mean anomaly: 152.8268 deg

Mean motion: 14.21724573 rev/day

Mean motion (dot): 0.00002491 rev/day2

B* drag term: 0.0011073 1/REarth

Two-line elements (TLE)

Creation date: May 7, 2025, 3:14 a.m.

Reference frame: TEME

Reference center: EARTH

Epoch: May 6, 2025, 6:08 p.m. UTC

TLE line 0: 0 FENGYUN 1C DEB

TLE line 1: 1 32178U 99025CTY 25126.75594991 .00002491 00000-0 11073-2 0 9991

TLE line 2: 2 32178 100.2898 91.5505 0094940 206.7981 152.8268 14.21724573608760

Live tracking on map

Real-time ground track for satellite FENGYUN 1C DEB.

In-orbit conjunctions

A list of the most updated potential collisions computed for object FENGYUN 1C DEB.

Target Orbit TCA Probability of collision Miss distance Type
CZ-2C DEB SSO 2025-03-16 09:40:06 0.0001206788 214.0 (m) DEBRIS
FENGYUN 1C DEB SSO 2024-11-13 00:18:24 0.0001013604 162.0 (m) DEBRIS

Associated space launch

Chinese polar orbiting meteorological satellite

FENGYUN 1C DEB was lifted into orbit during the mission ‘Long March 4B | Feng Yun 1C’, on board a Long March 4B space rocket.

The launch took place on May 10, 1999, 1:33 a.m. from Launch Complex 7.

For more information about the launch, click the button.

Launch to space Long March 4B | Feng Yun 1C
Long March 4B | Feng Yun 1C

Agency: N/A

Status: Launch Successful

Launch date: May 10, 1999, 1:33 a.m. UTC

Rocket: Long March 4B

Launch pad: Launch Complex 7

Location: Taiyuan Satellite Launch Center, People's Republic of China

...

Latest news about this satellite

There are no fresh news available about this satellite. Check back as we update our databases every day.


Newsletter sign-up

Weekly statistics, charts and insights to help you stay on top of the space industry.